RH
46 43 39 34 29 22 13 8 7 7 8 8 8 8 8 8 7 7 7 8 13 9 6 7 7 7 7 7 6 8 8 9 13 15 15 16 16 19 20 19 19 20 21 18 18 18 16
11 11 10 9 9 8 9 9 9 9 9 8 8 8 9 8 8 8 8 10 14 12 7 7 8 8 8 8 9 10 12 15 18 18 18 18 20 22 23 23 23 23 22 21 19 19 18
17 16 14 13 12 11 11 10 10 10 9 9 9 9 9 9 9 9 10 12 17 14 10 8 8 9 9 9 10 13 16 17 16 19 22 23 24 25 26 26 27 26 25 23 21 22 20
19 17 17 16 15 15 15 14 14 14 14 13 13 14 15 14 11 10 11 15 18 15 12 10 10 10 10 11 12 15 15 16 19 26 27 29 30 30 31 31 30 30 30 27 26 24 24
15 15 16 16 16 17 18 18 18 18 17 18 18 19 20 20 17 14 14 18 20 14 12 12 12 12 12 14 15 16 18 24 30 29 30 33 23 24 29 34 35 37 35 33 30 28 24
16 17 18 18 17 18 18 19 19 17 16 17 19 20 24 23 20 19 20 23 20 16 14 15 16 15 16 19 19 23 31 35 36 31 29 24 22 22 25 26 29 32 35 38 36 29 27
19 21 22 23 21 18 19 20 19 16 15 15 14 19 23 26 27 28 28 24 20 18 18 21 23 25 23 25 31 34 35 33 37 33 30 31 28 28 27 28 26 25 26 33 39 34 30
26 20 19 24 26 24 21 20 21 20 22 21 19 19 27 32 32 30 27 25 25 27 30 31 32 33 39 36 34 32 36 36 38 39 37 35 32 33 29 29 30 28 29 31 38 40 35
28 28 23 22 27 32 30 26 23 23 25 27 28 29 29 29 30 30 30 36 39 42 37 40 41 40 37 35 34 33 35 37 38 42 43 41 36 35 33 34 32 31 33 30 30 33 38
26 25 24 26 30 32 35 38 36 31 28 27 27 28 29 29 30 35 41 46 47 50 46 43 44 38 38 39 36 42 43 41 41 46 47 40 37 39 37 36 35 32 33 31 33 36 39
35 34 30 28 30 33 38 48 51 49 43 37 36 36 34 36 38 37 44 48 48 40 40 38 37 39 39 39 38 37 40 40 46 47 44 37 38 39 39 38 37 38 35 34 35 38 35
27 27 26 27 28 29 28 35 47 56 57 56 52 46 46 48 50 48 47 49 48 46 40 39 40 39 36 35 35 38 42 45 48 47 48 44 43 44 44 46 44 43 40 35 30 25 17
24 25 25 23 22 24 23 24 28 34 44 53 57 61 61 55 52 48 47 47 46 40 41 41 43 44 42 42 41 43 46 49 54 53 49 50 50 52 53 53 50 46 40 34 18 12 11
22 23 22 21 21 22 23 23 24 24 25 30 37 40 46 50 56 63 65 61 46 43 47 50 51 52 50 47 45 49 51 54 60 59 58 51 43 49 52 47 37 32 23 24 20 19 26
19 15 13 13 14 16 17 20 22 23 24 24 24 24 24 25 25 27 32 31 30 32 41 44 40 32 26 25 27 30 32 31 32 32 33 30 21 16 16 17 20 18 15 19 33 52 56
55 50 46 53 36 26 18 14 12 12 12 13 12 13 13 14 14 15 16 14 17 20 22 22 22 21 19 19 19 19 18 16 17 17 16 15 15 14 14 15 17 19 29 51 81 83 71
97 95 89 75 75 76 55 42 39 36 35 33 32 30 33 32 30 27 24 22 23 24 24 23 25 26 24 22 22 21 20 21 20 20 20 20 31 48 51 50 58 70 76 90 100 81 79
64 80 94 96 95 87 73 62 56 54 53 49 45 39 45 45 43 39 37 36 32 27 23 20 19 23 28 30 34 48 54 40 37 50 82 94 87 81 68 77 79 79 80 83 96 83 68
87 71 57 50 46 52 59 63 67 69 70 67 59 55 51 50 46 46 41 33 28 25 28 27 38 46 61 70 90 98 95 100 100 100 89 91 83 77 65 68 79 72 77 74 82 79 61
99 100 98 98 98 98 91 73 61 54 54 57 56 52 49 48 42 35 29 26 25 32 41 45 56 78 99 100 100 88 93 93 100 100 98 96 84 82 77 99 90 80 79 81 81 78 90
100 100 100 99 99 100 99 99 100 100 100 89 64 47 38 37 33 37 52 58 88 96 100 99 88 98 100 97 100 100 99 100 98 100 96 92 84 91 87 100 100 96 84 80 76 62 60
100 99 100 100 100 100 100 100 99 100 100 96 98 100 98 96 98 100 99 90 100 100 98 99 96 100 96 96 100 100 100 97 95 100 100 100 96 100 91 92 85 80 68 56 43 40 38
100 100 100 100 100 100 100 100 100 100 100 97 100 100 100 98 100 100 91 100 100 100 96 100 100 100 95 100 100 100 100 100 100 93 100 94 74 44 66 42 36 45 38 36 37 34 25
100 100 100 100 100 100 100 100 100 100 100 100 100 100 100 94 99 95 100 100 100 100 95 100 100 100 100 99 100 100 100 96 95 92 92 84 74 49 52 48 51 45 41 40 38 35 32
100 100 100 100 100 100 100 100 100 100 100 100 100 100 100 98 91 84 95 100 100 100 97 100 100 100 100 94 100 99 89 83 76 74 68 66 62 54 47 42 40 46 39 36 35 31 30
99 68 99 100 100 100 99 97 100 100 100 100 100 100 100 100 75 75 83 86 78 79 88 91 96 92 94 93 100 99 93 80 78 67 60 57 51 44 40 38 44 34 35 35 38 39 38
36 35 42 72 61 53 96 100 65 46 56 63 64 54 53 46 22 31 21 18 17 16 18 20 22 37 52 48 48 53 50 38 39 38 38 42 46 56 48 50 73 36 49 63 72 58 91
19 36 45 42 40 38 33 32 33 34 34 38 30 39 41 42 22 19 22 25 18 18 23 21 31 30 35 37 37 37 51 44 58 38 52 54 64 56 54 62 64 60 71 69 91 99 94
82 54 20 12 14 20 29 39 48 57 65 81 57 66 67 77 39 28 27 23 22 32 28 32 34 46 97 64 74 100 100 98 90 85 66 84 69 92 99 75 72 82 85 99 100 100 100
Wind_Speed
10 11 12 11 12 13 14 14 15 16 17 17 18 20 21 22 22 22 24 25 28 31 30 29 27 25 23 22 20 19 19 18 17 18 19 20 22 22 21 21 21 21 23 25 26 27 26
8 9 9 10 11 12 12 13 13 14 16 19 21 23 23 23 23 23 24 26 29 32 32 31 29 27 25 22 21 19 19 19 19 19 21 21 23 23 22 22 23 24 24 25 26 28 29
5 6 6 7 8 9 9 11 13 16 18 21 22 23 22 22 22 23 24 26 29 32 32 32 31 29 26 23 22 21 20 19 21 21 22 22 24 24 24 24 24 25 26 26 27 28 30
5 3 2 3 5 7 9 11 13 16 18 20 21 21 22 22 22 23 25 27 30 31 32 32 32 30 26 24 23 22 22 23 22 22 22 25 26 27 27 27 27 28 29 30 28 29 30
3 1 1 2 4 6 7 10 12 14 16 18 20 21 22 23 23 24 26 29 31 31 32 32 31 29 26 25 24 24 24 22 22 25 25 24 25 25 26 27 28 29 31 31 32 30 31
2 1 1 2 3 6 8 10 11 12 12 14 16 18 19 19 23 24 26 29 31 31 31 31 29 28 25 25 25 24 23 21 22 23 21 23 23 24 25 26 29 32 32 32 34 31 31
3 2 2 2 4 6 7 8 8 9 9 10 12 14 15 17 19 22 24 26 28 29 29 27 26 25 25 26 25 24 22 24 22 23 23 24 25 26 27 28 30 33 35 37 37 35 33
5 4 5 5 6 6 8 9 10 11 11 12 12 13 15 17 19 21 22 24 26 27 26 26 25 25 24 25 25 26 26 28 30 30 30 30 30 32 32 33 34 35 36 39 38 39 40
10 9 8 9 9 9 9 10 11 11 11 12 13 14 15 17 19 21 22 24 25 27 28 26 26 25 25 26 27 27 28 29 32 33 35 36 35 37 37 37 38 37 38 40 41 41 42
17 16 15 14 14 14 14 14 14 14 14 16 17 18 18 20 21 23 24 25 27 29 31 29 30 30 31 32 30 30 31 32 31 34 38 38 38 40 40 40 40 40 40 42 43 45 44
22 21 19 19 20 19 19 19 18 18 18 18 20 21 22 23 24 26 27 29 30 32 35 32 31 32 34 35 35 36 38 36 35 39 41 40 41 42 42 41 42 43 42 44 47 47 48
25 25 25 25 25 25 25 24 24 24 24 24 24 25 27 28 29 31 32 33 35 36 38 36 37 38 39 40 39 38 39 40 41 42 42 45 43 43 44 43 43 45 46 48 50 50 51
30 29 29 28 29 28 29 29 29 29 29 30 31 31 32 33 35 36 37 38 40 41 39 40 40 42 44 44 44 43 43 41 43 45 46 44 46 46 46 46 46 48 49 52 54 52 51
32 32 31 31 32 32 32 32 33 33 33 34 35 36 37 38 39 40 40 42 44 42 42 43 43 45 46 46 46 45 46 45 44 46 50 50 52 49 50 49 51 49 48 48 55 51 52
33 33 33 32 33 33 34 35 35 35 36 36 37 38 38 39 40 43 45 45 42 42 42 43 44 47 48 47 49 48 49 48 46 46 50 53 56 55 52 51 49 49 49 49 50 50 52
39 38 38 37 37 37 37 38 38 38 38 39 40 40 40 41 43 44 47 44 44 43 45 47 47 50 49 48 48 49 50 51 47 46 48 54 56 55 53 50 48 48 49 49 46 52 56
45 44 44 44 43 43 43 43 44 44 44 45 45 46 43 46 48 49 49 47 46 45 48 50 49 50 50 50 48 49 51 49 48 46 48 51 54 55 53 50 48 48 47 46 47 51 54
50 51 50 49 49 49 49 49 49 49 50 51 51 53 49 51 52 52 49 47 49 49 49 51 51 49 48 48 48 50 49 52 49 48 50 53 55 55 54 51 49 46 47 46 46 52 55
52 52 53 54 55 55 55 54 54 55 55 56 57 56 56 55 57 54 52 51 53 50 48 51 52 51 51 51 53 51 51 49 49 52 55 52 54 54 54 52 48 48 45 48 51 57 61
57 57 56 54 52 53 55 57 59 60 59 59 60 61 59 58 58 56 56 55 55 51 51 52 53 53 51 52 56 60 59 59 55 50 48 49 54 53 51 46 50 51 50 52 58 62 53
58 57 56 55 53 53 54 54 54 53 58 63 63 62 62 61 57 57 58 59 56 54 53 53 54 55 56 57 56 54 52 50 51 49 51 52 53 51 50 48 48 47 50 52 57 53 59
58 57 55 53 52 52 52 50 53 50 47 52 57 61 61 60 60 61 63 60 58 57 56 55 54 52 56 57 51 47 47 51 53 50 49 49 53 52 51 52 51 51 53 54 57 57 60
56 55 54 51 50 48 45 44 46 47 49 50 50 50 49 50 51 53 57 56 57 56 57 54 52 52 57 47 48 50 51 51 51 53 51 49 48 52 54 58 59 63 53 56 58 59 62
66 62 60 56 53 53 53 52 54 54 51 52 56 54 51 53 53 54 55 60 57 53 57 55 55 56 50 51 52 52 52 53 52 51 50 54 55 59 62 64 69 60 60 63 64 66 69
78 75 73 66 66 65 61 60 58 60 62 63 61 60 58 60 60 59 57 53 58 61 62 59 52 50 51 53 54 55 56 58 57 56 57 57 61 66 68 70 72 65 62 67 70 69 69
84 84 82 79 75 74 75 72 66 69 70 70 66 65 68 66 70 70 70 68 66 64 61 56 52 55 58 57 60 63 66 64 68 65 65 67 67 69 70 74 75 70 66 70 70 75 65
91 89 89 90 88 88 81 79 80 78 79 80 79 77 80 82 77 78 78 75 75 71 70 64 62 61 62 65 66 69 72 67 72 71 69 70 73 74 73 76 76 72 72 65 68 69 60
92 92 91 91 91 90 90 88 85 83 82 83 81 82 84 87 84 85 80 79 77 77 76 72 69 70 70 75 72 75 78 75 78 74 71 76 73 75 77 77 83 74 73 72 62 63 66
94 91 90 90 91 91 91 90 88 87 86 85 85 84 85 90 90 87 86 82 81 79 79 79 77 72 71 78 75 69 79 65 74 82 72 76 78 74 76 77 76 78 74 66 67 67 63
Wind_Direction
196 190 202 200 195 201 204 202 201 200 204 213 223 230 235 238 238 236 233 225 218 217 218 218 220 224 228 236 243 247 253 261 267 276 284 291 296 298 296 296 300 302 305 306 307 307 308
176 176 178 183 186 188 194 198 207 216 224 231 237 242 244 245 244 240 233 227 222 219 221 222 224 228 234 241 246 250 256 262 270 279 284 288 290 291 291 294 296 299 302 303 305 305 306
160 173 187 198 203 212 220 227 233 239 243 247 250 251 249 247 244 239 232 228 224 222 223 227 229 232 237 242 246 251 257 263 273 279 282 283 285 288 291 293 295 299 299 301 302 304 302
122 129 173 225 239 242 245 248 250 251 251 252 250 248 248 246 242 239 234 229 226 224 226 229 232 235 240 245 248 253 261 268 273 275 280 281 284 287 288 290 293 295 297 298 297 299 301
108 118 175 264 261 256 251 249 249 250 251 253 254 253 251 250 245 239 236 231 227 227 228 229 233 239 242 246 251 256 262 268 270 274 279 281 287 289 290 290 291 294 297 297 297 299 298
152 159 213 250 264 254 244 242 241 241 243 247 250 249 241 241 240 235 233 233 230 229 230 232 236 241 247 249 255 259 261 260 275 274 274 283 289 292 293 294 296 296 295 294 294 298 296
191 220 252 266 271 270 265 258 252 251 255 257 252 248 238 234 233 230 230 231 231 229 230 235 239 244 247 253 258 256 258 259 282 272 278 285 291 293 294 296 298 301 301 298 296 297 296
219 234 263 270 268 276 285 285 275 267 261 254 250 243 238 234 231 230 228 229 230 233 233 237 244 249 249 253 258 264 267 268 275 273 275 282 290 294 296 296 298 302 303 300 296 295 294
257 256 250 259 259 255 260 268 267 265 261 252 245 239 237 243 237 233 232 232 235 237 239 242 247 250 256 261 265 270 270 273 276 272 276 283 288 290 293 295 297 300 300 301 298 296 296
252 253 256 256 256 255 252 256 264 266 263 261 255 252 248 245 244 240 240 241 244 248 249 247 254 259 263 268 270 270 274 278 274 271 278 283 286 288 289 291 293 297 296 298 297 297 297
264 265 262 261 260 258 256 256 259 261 263 262 260 256 253 249 248 247 247 249 250 253 259 256 259 262 266 270 271 271 276 278 273 275 279 282 284 284 285 288 291 294 294 295 294 295 295
265 265 265 264 263 264 260 256 254 256 257 259 258 256 256 254 251 251 252 253 256 258 260 264 268 269 271 271 273 274 275 276 276 277 278 281 282 283 284 286 288 290 292 292 292 292 292
264 264 264 263 262 262 263 263 261 259 259 259 259 259 258 257 257 257 257 258 261 262 267 269 270 271 272 274 275 276 276 276 276 278 280 282 282 283 283 284 285 288 291 292 292 293 294
266 265 264 263 262 261 260 258 259 258 258 259 260 260 262 263 264 264 263 261 263 268 268 269 271 272 272 273 274 274 274 273 275 278 282 283 281 280 282 282 284 286 288 291 291 293 294
265 266 265 265 265 264 264 263 261 260 260 260 261 262 263 264 265 267 268 267 269 270 272 272 271 270 272 274 275 275 275 274 274 275 277 280 280 282 282 284 284 287 287 286 290 290 287
265 265 266 265 266 265 265 265 264 263 263 261 261 262 263 264 265 265 265 268 270 271 272 272 273 274 276 275 276 276 277 277 276 275 277 277 280 282 283 283 285 285 286 289 291 291 291
266 266 266 266 265 266 266 266 265 264 263 262 262 262 262 265 265 266 268 270 269 269 270 270 272 274 275 275 274 275 276 278 276 276 276 277 278 282 283 284 283 284 285 287 288 288 289
268 268 267 266 265 265 265 265 264 264 264 264 264 263 263 262 264 266 269 269 267 267 268 271 273 273 274 274 275 276 278 276 280 276 276 274 278 280 280 282 283 284 284 286 287 287 285
267 267 267 266 266 265 265 266 266 266 266 266 265 265 265 265 266 268 266 266 266 266 266 268 270 271 272 274 276 277 276 278 276 275 274 275 275 277 279 282 285 282 284 286 288 286 286
264 265 266 268 270 269 266 264 265 265 266 267 268 268 267 267 267 268 268 266 267 269 269 269 270 270 273 274 275 277 279 278 277 273 271 271 275 278 282 285 282 284 286 286 285 286 298
265 265 265 264 265 268 268 268 267 267 267 262 261 263 265 266 265 265 265 267 268 269 270 269 269 271 271 272 272 272 272 270 268 269 271 274 276 276 277 277 281 281 282 285 287 296 291
267 265 264 264 265 265 266 265 267 269 267 264 263 264 264 264 262 262 263 265 266 266 267 268 269 266 267 269 269 264 263 264 267 267 268 270 275 276 275 281 282 282 280 288 292 292 293
257 257 261 263 264 265 266 258 255 261 257 258 257 256 262 261 260 259 261 261 260 261 264 265 265 264 265 264 263 263 261 263 265 267 272 280 284 285 285 284 283 278 289 287 288 293 295
254 255 256 254 255 257 260 257 261 256 255 260 255 254 250 249 253 258 261 260 259 259 259 259 258 260 265 261 260 263 268 269 268 271 279 283 286 284 285 284 281 289 289 292 292 291 293
254 255 253 251 252 255 257 253 248 250 254 260 263 260 262 260 259 256 262 267 264 264 266 268 268 271 268 269 273 274 273 274 276 278 281 282 281 282 281 282 285 287 293 290 291 291 293
253 254 252 251 250 251 250 249 242 246 251 255 256 258 256 255 262 264 268 267 267 267 266 267 264 263 264 266 269 270 276 282 280 282 282 283 281 278 281 283 284 291 291 291 294 291 294
256 255 254 254 255 255 255 254 256 256 259 262 262 261 261 261 258 263 265 267 270 269 268 265 264 265 267 269 268 270 272 275 273 278 280 279 280 282 284 285 285 294 294 297 287 301 287
260 259 258 257 257 257 257 257 257 256 257 258 259 260 261 261 262 263 263 264 268 268 269 271 269 268 268 269 271 274 276 276 277 277 279 278 280 282 285 287 286 294 289 291 292 284 286
262 263 263 261 261 260 259 258 258 257 256 256 256 257 258 259 262 261 261 262 264 264 267 268 268 268 265 270 274 270 275 276 275 277 280 274 283 286 281 284 287 287 291 286 282 282 289